Wind_Speed
9 7 8 8 11 13 10 9 10 12 14 15 15 16 16 15 13 14 11 8 7 5 5 5 5 6 14 17 15 16 13 20 20
10 10 10 11 11 13 12 11 11 13 15 17 17 16 15 12 9 7 7 6 6 6 6 4 5 14 17 16 14 13 18 18 17
12 11 11 12 13 14 13 14 13 15 17 18 19 16 14 13 8 7 8 6 6 6 5 5 12 15 18 16 13 16 18 18 15
15 15 14 14 15 14 15 16 15 16 18 19 19 17 17 15 13 11 10 7 6 5 5 11 15 16 14 13 12 14 18 17 15
16 16 16 16 17 17 17 18 16 15 17 21 21 19 18 16 15 12 10 9 10 9 9 13 16 18 16 14 13 15 15 16 16
18 19 18 16 18 19 19 19 19 17 16 20 22 22 19 19 18 15 14 12 12 11 15 17 19 18 16 16 16 16 14 12 14
20 20 19 19 19 20 22 20 20 21 20 19 24 25 24 21 19 19 17 14 13 14 20 22 20 18 18 18 20 19 17 14 11
20 22 22 22 22 23 24 24 24 24 23 21 22 23 27 24 20 20 19 14 17 17 19 23 22 17 13 15 20 22 20 17 15
19 21 22 23 25 26 27 28 30 27 25 24 20 20 25 30 28 24 21 19 19 20 20 25 22 17 14 19 20 21 19 17 14
16 20 21 23 24 27 29 30 32 30 28 28 27 28 25 28 32 26 21 22 22 23 22 26 21 19 17 20 21 22 21 18 17
15 16 19 20 22 24 28 31 32 31 29 28 25 25 25 28 31 27 26 24 24 24 25 27 23 21 20 20 22 24 23 19 21
14 14 14 15 18 22 26 31 33 31 30 31 31 30 30 31 32 30 29 26 25 28 24 28 27 25 23 23 23 22 21 22 23
14 15 15 16 17 20 24 28 32 33 32 33 34 33 33 34 34 31 29 27 27 29 26 28 27 29 27 25 27 25 24 22 18
13 14 15 14 15 19 22 29 35 31 34 39 39 36 39 35 35 35 33 28 30 30 27 24 24 28 30 29 29 26 24 22 19
11 14 17 19 20 16 20 16 29 31 38 41 39 39 39 39 36 38 37 34 35 33 30 27 26 25 28 33 32 31 26 22 21
20 21 21 19 19 21 18 22 24 24 35 42 37 40 41 44 39 42 42 38 36 33 31 30 27 26 25 28 32 32 32 27 21
20 26 24 21 19 19 21 23 22 25 23 32 34 24 38 45 45 46 45 43 41 39 36 34 31 29 27 26 29 34 34 35 30
16 16 17 15 15 16 17 20 21 22 26 20 26 15 26 32 47 50 49 48 46 44 40 39 35 33 31 28 26 31 34 35 37
6 8 8 9 11 14 14 15 15 19 22 22 26 26 31 11 16 40 54 51 49 48 44 42 41 37 35 32 28 26 29 33 34
10 11 11 10 8 6 6 9 14 14 16 14 22 26 26 26 28 15 28 52 53 51 48 46 45 42 40 35 32 31 29 29 32
Wind_Direction
221 215 198 174 175 172 178 178 176 173 162 158 156 156 152 153 162 164 171 183 172 158 161 159 152 153 122 126 145 147 128 118 130
227 219 206 203 194 193 194 192 189 178 174 166 162 160 156 154 165 188 199 218 206 182 174 174 148 138 139 145 159 143 127 142 148
222 229 217 212 204 202 205 197 192 183 179 178 173 169 169 165 189 204 226 226 224 210 193 168 144 143 154 167 164 148 155 158 159
229 224 226 220 213 208 202 198 193 187 185 187 184 180 179 183 190 207 231 229 244 235 203 160 146 158 168 175 185 169 170 168 157
232 231 230 225 222 216 207 205 205 205 196 197 192 192 196 196 201 211 219 235 271 242 189 166 162 170 183 178 158 171 178 189 193
236 236 236 235 229 224 215 212 217 213 207 202 200 199 201 200 209 215 231 253 263 210 188 180 180 187 185 181 176 179 197 179 184
242 240 238 239 237 230 223 219 220 223 218 205 206 208 205 210 215 216 231 251 243 210 194 192 194 213 201 197 178 186 190 191 186
239 241 238 236 237 235 231 223 223 227 226 223 218 214 214 212 218 215 226 242 232 217 197 194 203 215 223 201 177 190 194 201 197
249 248 245 242 238 239 234 232 228 228 230 229 224 222 221 221 221 226 228 233 228 223 205 201 208 213 207 182 184 189 200 188 194
256 255 254 251 246 244 243 239 239 226 229 238 231 237 222 220 219 221 221 231 232 227 216 204 212 208 202 194 199 198 206 209 209
260 261 261 261 254 248 247 244 244 241 237 235 237 227 221 219 217 223 218 226 233 233 219 214 216 210 203 203 204 207 222 222 230
253 260 262 269 268 257 255 246 240 233 235 240 235 230 224 220 219 231 225 229 235 230 227 221 219 216 210 208 206 205 218 231 235
258 263 266 266 267 263 270 254 245 239 237 237 231 238 227 221 225 232 229 231 229 226 233 230 224 221 217 213 210 210 218 223 232
253 263 266 269 271 268 271 261 250 245 247 240 240 236 236 231 227 229 228 234 228 230 232 234 233 228 224 219 217 217 220 225 227
257 264 270 273 273 268 265 280 256 260 252 245 241 236 240 240 234 231 233 239 234 230 236 236 233 232 233 230 221 218 223 230 225
283 279 273 272 271 266 262 262 266 260 235 247 245 250 247 238 236 239 237 236 235 232 235 236 238 230 230 230 233 229 223 229 233
300 292 289 281 273 270 266 265 266 254 263 242 246 256 251 244 240 235 236 234 237 235 237 234 231 231 233 235 232 232 229 229 237
301 311 313 302 299 294 288 274 270 269 255 259 256 254 254 239 239 235 234 233 234 235 235 231 230 231 236 238 237 236 236 233 226
0 352 350 344 326 305 296 290 279 278 276 273 266 255 271 244 230 228 233 230 231 233 231 234 231 231 234 236 236 234 235 236 236
44 49 33 22 10 354 323 298 288 278 274 286 266 258 259 267 272 299 221 230 229 233 234 234 233 233 234 236 236 235 234 236 241
Height
1533 1534 1534 1535 1535 1536 1538 1538 1540 1540 1542 1544 1545 1546 1547 1549 1551 1551 1552 1553 1553 1555 1555 1556 1557 1557 1559 1561 1562 1562 1563 1564 1565
1533 1533 1534 1535 1535 1536 1537 1538 1540 1540 1541 1543 1545 1546 1548 1549 1551 1552 1553 1554 1553 1554 1555 1556 1556 1558 1560 1562 1563 1563 1564 1566 1566
1531 1532 1533 1534 1534 1535 1536 1537 1538 1540 1541 1543 1544 1546 1547 1548 1550 1552 1553 1553 1554 1554 1555 1555 1556 1558 1560 1562 1563 1564 1565 1566 1566
1529 1529 1531 1532 1533 1534 1535 1536 1537 1539 1540 1542 1543 1545 1547 1548 1550 1551 1552 1553 1553 1554 1555 1556 1556 1558 1560 1562 1563 1564 1565 1566 1567
1527 1527 1529 1530 1532 1533 1533 1535 1536 1538 1539 1541 1542 1543 1545 1547 1548 1550 1551 1552 1553 1553 1554 1556 1557 1557 1560 1561 1563 1563 1564 1566 1567
1524 1525 1527 1528 1530 1532 1533 1533 1534 1536 1538 1540 1541 1542 1544 1545 1547 1548 1551 1551 1552 1552 1553 1555 1556 1558 1559 1560 1562 1563 1564 1565 1566
1521 1523 1524 1525 1528 1529 1531 1532 1533 1534 1535 1537 1538 1540 1542 1544 1545 1546 1549 1550 1551 1550 1552 1554 1555 1556 1557 1557 1560 1561 1563 1564 1566
1517 1519 1521 1523 1524 1525 1527 1528 1529 1531 1532 1534 1535 1537 1539 1540 1542 1544 1546 1547 1549 1549 1550 1552 1553 1555 1555 1556 1557 1560 1562 1563 1564
1514 1516 1518 1519 1520 1521 1522 1523 1525 1526 1529 1531 1532 1532 1534 1536 1538 1541 1543 1544 1545 1546 1547 1549 1550 1553 1553 1554 1556 1558 1560 1562 1563
1509 1512 1514 1515 1516 1517 1518 1519 1519 1521 1524 1527 1528 1528 1529 1530 1532 1536 1539 1541 1542 1543 1545 1546 1547 1550 1551 1553 1554 1556 1558 1560 1560
1506 1508 1509 1511 1512 1513 1514 1515 1516 1518 1519 1522 1523 1524 1526 1527 1529 1532 1535 1537 1538 1539 1541 1542 1543 1545 1548 1550 1552 1554 1555 1557 1557
1502 1504 1505 1506 1506 1508 1510 1511 1512 1513 1516 1517 1519 1520 1522 1524 1525 1529 1531 1532 1534 1536 1537 1538 1540 1541 1544 1546 1548 1550 1551 1553 1554
1501 1501 1502 1502 1503 1504 1504 1506 1507 1508 1511 1512 1513 1515 1517 1519 1522 1524 1526 1528 1529 1531 1533 1534 1536 1537 1540 1542 1544 1546 1548 1549 1550
1499 1500 1500 1500 1500 1501 1500 1501 1501 1503 1504 1508 1507 1508 1512 1514 1516 1517 1519 1522 1524 1527 1529 1531 1532 1533 1535 1538 1540 1541 1543 1544 1546
1497 1497 1497 1497 1497 1496 1496 1496 1497 1496 1497 1501 1500 1501 1503 1505 1506 1510 1512 1516 1518 1521 1524 1526 1528 1530 1531 1534 1535 1537 1539 1540 1542
1493 1494 1494 1493 1493 1493 1493 1492 1491 1487 1490 1494 1494 1495 1496 1498 1500 1504 1505 1508 1511 1514 1517 1520 1522 1524 1526 1528 1530 1532 1534 1535 1538
1493 1491 1490 1489 1488 1489 1489 1488 1488 1489 1489 1490 1492 1488 1488 1489 1490 1494 1497 1500 1503 1506 1509 1513 1515 1519 1521 1523 1524 1527 1529 1530 1532
1490 1490 1488 1486 1485 1485 1485 1483 1483 1483 1485 1487 1486 1484 1479 1481 1481 1484 1487 1491 1494 1498 1502 1504 1507 1511 1514 1517 1519 1521 1523 1525 1525
1489 1488 1487 1486 1483 1483 1483 1481 1479 1479 1478 1480 1481 1479 1478 1471 1472 1472 1477 1480 1485 1489 1492 1496 1499 1502 1506 1509 1512 1514 1516 1518 1522
1490 1488 1487 1485 1483 1481 1480 1479 1477 1476 1476 1473 1473 1474 1473 1473 1474 1467 1468 1470 1473 1478 1483 1487 1491 1494 1497 1501 1504 1507 1509 1511 1513